Location: Podia
(1.5569°N, 32.3469°E)
Time: 17:35:20
(UTC+00:00)

CSL-04 Rocket - Pass Details

Date: 01 June 2020
Orbit: 806 x 860 km, 98.9° (Epoch: 05 July)

Event Time Altitude Azimuth Distance (km) Brightness Sun altitude
Exits shadow 17:15:33 15° 170° (S) 2,109 5.5 -19.4°
Maximum altitude 17:20:07 82° 257° (WSW) 851 3.7 -20.5°
Drops below altitude 10° 17:25:36 10° 345° (NNW) 2,465 6.6 -21.7°
Sets 17:27:58 0° 346° (NNW) 3,404 7.4 -22.2°
